This is the latest recevied weather packets stored in our database for station/object IW4DZV-13. If no packets are shown the sender has not sent any weather packets the latest 10 day(s).
| Time | Temp. | Humidity | Pressure | Rain* | Wind** | Luminosity | Snow |
|---|---|---|---|---|---|---|---|
| 1777536964 | 16.67° C | 54% | 1023.6 hPa | 0.51 mm | - | 649 W/m² | - |
| 1777536039 | 15.56° C | 58% | 1023.6 hPa | 0.51 mm | - | 608 W/m² | - |
| 1777535119 | 13.89° C | 64% | 1023.4 hPa | 0.51 mm | - | 353 W/m² | - |
| 1777534227 | 13.89° C | 67% | 1023.3 hPa | 0.51 mm | - | 271 W/m² | - |
| 1777533332 | 13.33° C | 68% | 1023.3 hPa | 0.51 mm | - | 221 W/m² | - |
| 1777532413 | 13.33° C | 68% | 1023.2 hPa | 0.51 mm | - | 218 W/m² | - |
| 1777531516 | 12.78° C | 70% | 1023.1 hPa | 0.51 mm | - | 248 W/m² | - |
| 1777530608 | 12.22° C | 71% | 1022.9 hPa | 0.51 mm | - | 149 W/m² | - |
| 1777529709 | 12.22° C | 70% | 1022.7 hPa | 0.51 mm | - | 202 W/m² | - |
| 1777528803 | 12.78° C | 70% | 1022.6 hPa | 0.51 mm | - | 148 W/m² | - |
| 1777527961 | 12.22° C | 73% | 1022.4 hPa | 0.51 mm | - | 193 W/m² | - |
| 1777527069 | 11.11° C | 76% | 1022.3 hPa | 0.51 mm | - | 151 W/m² | - |
| 1777526154 | 10° C | 78% | 1022.1 hPa | 0.51 mm | - | 86 W/m² | - |
| 1777525251 | 10° C | 79% | 1021.9 hPa | 0.51 mm | - | 39 W/m² | - |
| 1777524350 | 10° C | 80% | 1021.8 hPa | 0.51 mm | - | 18 W/m² | - |
| 1777523448 | 10° C | 80% | 1021.7 hPa | 0.51 mm | - | 12 W/m² | - |
| 1777522544 | 10° C | 80% | 1021.5 hPa | 0.51 mm | - | 7 W/m² | - |
| 1777521658 | 10° C | 79% | 1021.6 hPa | 0.51 mm | - | 0 W/m² | - |
| 1777520743 | 10° C | 79% | 1021.3 hPa | 0.51 mm | - | 0 W/m² | - |
| 1777519840 | 10° C | 79% | 1021 hPa | 0.51 mm | - | 0 W/m² | - |
| 1777518936 | 10.56° C | 79% | 1020.9 hPa | 0.51 mm | - | 0 W/m² | - |
| 1777518044 | 10.56° C | 78% | 1020.8 hPa | 0.51 mm | - | 0 W/m² | - |
| 1777517133 | 10.56° C | 80% | 1020.7 hPa | 0.51 mm | - | 0 W/m² | - |
| 1777516248 | 11.11° C | 81% | 1020.7 hPa | 0.51 mm | - | 0 W/m² | - |
| 1777515329 | 11.11° C | 80% | 1020.7 hPa | 0.51 mm | - | 0 W/m² | - |
* Rain since midnight (hover to see other rain measurements)
** Current wind speed in m/s (hover to see current wind gust speed)